This is the latest recevied weather packets stored in our database for station/object WS2Z. If no packets are shown the sender has not sent any weather packets the latest 10 day(s).
| Time | Temp. | Humidity | Pressure | Rain* | Wind** | Luminosity | Snow |
|---|---|---|---|---|---|---|---|
| 1777598952 | 23.89° C | 80% | 1012.5 hPa | 0 mm | - | 0 W/m² | - |
| 1777598650 | 23.89° C | 80% | 1012.7 hPa | 0 mm | - | 0 W/m² | - |
| 1777598345 | 23.89° C | 81% | 1012.7 hPa | 0 mm | - | 0 W/m² | - |
| 1777598044 | 23.89° C | 81% | 1012.6 hPa | 0 mm | - | 0 W/m² | - |
| 1777597743 | 24.44° C | 80% | 1012.9 hPa | 0 mm | - | 0 W/m² | - |
| 1777597439 | 24.44° C | 79% | 1012.6 hPa | 0 mm | - | 0 W/m² | - |
| 1777597134 | 24.44° C | 78% | 1012.4 hPa | 0 mm | - | 0 W/m² | - |
| 1777596831 | 24.44° C | 78% | 1012.5 hPa | 0 mm | - | 0 W/m² | - |
| 1777596526 | 24.44° C | 78% | 1012.5 hPa | 0 mm | - | 0 W/m² | - |
| 1777596224 | 25° C | 78% | 1012.5 hPa | 0 mm | - | 0 W/m² | - |
| 1777595921 | 25° C | 77% | 1012.4 hPa | 0 mm | - | 0 W/m² | - |
| 1777595616 | 25° C | 77% | 1012.3 hPa | 0 mm | - | 0 W/m² | - |
| 1777595312 | 25° C | 75% | 1012.3 hPa | 0 mm | - | 0 W/m² | - |
| 1777595008 | 25° C | 75% | 1012.3 hPa | 0 mm | - | 0 W/m² | - |
| 1777594705 | 25° C | 74% | 1012.2 hPa | 0 mm | - | 0 W/m² | - |
| 1777594401 | 25° C | 73% | 1012.3 hPa | 0 mm | - | 0 W/m² | - |
| 1777594097 | 25.56° C | 73% | 1012.3 hPa | 0 mm | - | 1 W/m² | - |
| 1777593793 | 25.56° C | 73% | 1012 hPa | 0 mm | - | 1 W/m² | - |
| 1777593490 | 25.56° C | 72% | 1012.2 hPa | 0 mm | - | 2 W/m² | - |
| 1777593189 | 25.56° C | 71% | 1012 hPa | 0 mm | - | 5 W/m² | - |
| 1777592888 | 25.56° C | 71% | 1011.9 hPa | 0 mm | - | 8 W/m² | - |
| 1777592585 | 25.56° C | 71% | 1011.9 hPa | 0 mm | - | 13 W/m² | - |
| 1777592280 | 26.11° C | 70% | 1012.1 hPa | 0 mm | - | 19 W/m² | - |
| 1777591976 | 26.11° C | 69% | 1012 hPa | 0 mm | - | 26 W/m² | - |
| 1777591672 | 26.11° C | 68% | 1012 hPa | 0 mm | - | 29 W/m² | - |
* Rain latest hour (hover to see other rain measurements)
** Current wind speed in m/s (hover to see current wind gust speed)